^^
Datos históricos de la estación: Murcia-Puente Tocinos
Diario Informe para Abril 7, 2019 Unidades:  Métrico    Inglés   Ambas
Diario Semanal Mensual Anual Configurable
  Máximo: Mínimo: Media:
Temperatura: 19.5 °C 10.1 °C 14.7 °C
Punto de rocio: 5.9 °C 1.0 °C 3.7 °C
Humedad: 74% 29% 49%
Velocidad viento: 26.2km/h 2.3km/h 12.9km/h
Racha viento: 44.4km/h - -
Viento- - West
Presión: 1013.9 hPa 1006.2 hPa -
Precipitación: 0.0 mm    
Historical Graphs
 
 
Tabla de datos para Abril 7, 2019
Hora Temperatura Punto de rocio Presión Viento Velocidad viento Racha viento Humedad Intensidad lluvia(por hora) Nubes
00:00 12.9 °C 3.6 °C 1006.4 hPa SSW 11.3 km/h 17.7 km/h 53% 0.0 mm RA
00:05 12.9 °C 3.8 °C 1006.5 hPa SW 11.9 km/h 13.0 km/h 54% 0.0 mm RA
00:10 12.8 °C 3.4 °C 1006.5 hPa SSW 10.3 km/h 14.8 km/h 53% 0.0 mm CLR
00:15 12.8 °C 3.4 °C 1006.5 hPa SSW 10.3 km/h 16.7 km/h 53% 0.0 mm CLR
00:20 12.8 °C 3.4 °C 1006.7 hPa SSW 10.3 km/h 13.0 km/h 53% 0.0 mm CLR
00:25 12.8 °C 2.9 °C 1006.7 hPa West 10.3 km/h 18.5 km/h 51% 0.0 mm CLR
00:30 13.0 °C 2.5 °C 1006.7 hPa SW 10.3 km/h 20.4 km/h 49% 0.0 mm CLR
00:35 13.1 °C 2.6 °C 1006.5 hPa West 10.3 km/h 16.7 km/h 49% 0.0 mm CLR
00:40 13.1 °C 2.6 °C 1006.5 hPa SW 11.9 km/h 18.5 km/h 49% 0.0 mm CLR
00:45 12.9 °C 2.4 °C 1006.5 hPa WSW 11.9 km/h 16.7 km/h 49% 0.0 mm CLR
00:50 12.9 °C 2.4 °C 1006.7 hPa WSW 11.9 km/h 14.8 km/h 49% 0.0 mm CLR
00:55 12.8 °C 2.3 °C 1006.7 hPa SW 11.9 km/h 14.8 km/h 49% 0.0 mm CLR
01:00 12.8 °C 2.3 °C 1006.7 hPa SW 11.3 km/h 22.5 km/h 49% 0.0 mm CLR
01:04 12.7 °C 1.9 °C 1006.6 hPa WNW 11.1 km/h 18.5 km/h 48% 0.0 mm CLR
01:09 12.7 °C 2.2 °C 1006.6 hPa WSW 11.9 km/h 18.5 km/h 49% 0.0 mm CLR
01:14 12.6 °C 2.2 °C 1006.6 hPa SW 11.9 km/h 20.4 km/h 49% 0.0 mm CLR
01:19 12.5 °C 2.3 °C 1006.8 hPa SW 10.3 km/h 13.0 km/h 50% 0.0 mm CLR
01:24 12.4 °C 2.3 °C 1006.8 hPa WSW 10.3 km/h 14.8 km/h 50% 0.0 mm CLR
01:29 12.3 °C 2.2 °C 1006.8 hPa WSW 9.5 km/h 11.1 km/h 50% 0.0 mm CLR
01:34 12.2 °C 2.3 °C 1006.7 hPa WSW 9.5 km/h 15.6 km/h 51% 0.0 mm CLR
01:39 11.9 °C 2.3 °C 1006.7 hPa WSW 10.0 km/h 14.8 km/h 52% 0.0 mm CLR
01:44 11.8 °C 2.5 °C 1006.7 hPa SW 10.0 km/h 18.5 km/h 53% 0.0 mm CLR
01:49 11.8 °C 2.5 °C 1006.6 hPa SW 11.9 km/h 19.8 km/h 53% 0.0 mm CLR
01:54 11.9 °C 2.6 °C 1006.6 hPa SW 11.9 km/h 22.2 km/h 53% 0.0 mm CLR
01:59 12.1 °C 2.6 °C 1006.6 hPa SW 12.2 km/h 25.9 km/h 52% 0.0 mm CLR
02:04 12.2 °C 2.6 °C 1006.5 hPa SW 12.2 km/h 20.9 km/h 52% 0.0 mm CLR
02:09 12.2 °C 2.3 °C 1006.5 hPa South 13.0 km/h 24.1 km/h 51% 0.0 mm CLR
02:14 12.2 °C 2.3 °C 1006.5 hPa SW 13.0 km/h 20.1 km/h 51% 0.0 mm CLR
02:19 12.2 °C 2.3 °C 1006.6 hPa WSW 14.0 km/h 22.2 km/h 51% 0.0 mm CLR
02:24 12.2 °C 2.3 °C 1006.6 hPa WSW 14.0 km/h 18.5 km/h 51% 0.0 mm CLR
02:29 12.2 °C 2.6 °C 1006.6 hPa WSW 12.2 km/h 11.1 km/h 52% 0.0 mm CLR
02:34 12.1 °C 2.6 °C 1006.6 hPa WSW 12.2 km/h 16.7 km/h 52% 0.0 mm CLR
02:39 12.1 °C 2.6 °C 1006.6 hPa SW 9.5 km/h 14.8 km/h 52% 0.0 mm CLR
02:44 12.1 °C 2.6 °C 1006.6 hPa South 9.5 km/h 14.8 km/h 52% 0.0 mm CLR
02:49 12.0 °C 2.4 °C 1006.6 hPa SSW 10.0 km/h 16.7 km/h 52% 0.0 mm CLR
02:54 11.9 °C 2.6 °C 1006.6 hPa SW 10.0 km/h 11.9 km/h 53% 0.0 mm CLR
02:59 11.8 °C 2.5 °C 1006.6 hPa South 10.0 km/h 18.5 km/h 53% 0.0 mm CLR
03:04 11.8 °C 2.5 °C 1006.5 hPa WSW 10.0 km/h 16.7 km/h 53% 0.0 mm CLR
03:09 11.7 °C 2.7 °C 1006.5 hPa SSW 11.9 km/h 16.7 km/h 54% 0.0 mm CLR
03:14 11.6 °C 2.6 °C 1006.5 hPa SSW 11.9 km/h 14.8 km/h 54% 0.0 mm CLR
03:19 11.5 °C 2.8 °C 1006.4 hPa SSE 10.0 km/h 14.8 km/h 55% 0.0 mm CLR
03:24 11.4 °C 2.9 °C 1006.4 hPa SSW 10.0 km/h 20.4 km/h 56% 0.0 mm CLR
03:29 11.3 °C 2.8 °C 1006.4 hPa South 10.3 km/h 13.0 km/h 56% 0.0 mm CLR
03:34 11.3 °C 2.8 °C 1006.3 hPa SSW 10.3 km/h 16.7 km/h 56% 0.0 mm CLR
03:39 11.4 °C 2.7 °C 1006.3 hPa SSW 10.3 km/h 20.4 km/h 55% 0.0 mm CLR
03:44 11.6 °C 2.8 °C 1006.3 hPa SSW 10.3 km/h 18.5 km/h 55% 0.0 mm CLR
03:49 11.5 °C 2.8 °C 1006.2 hPa SW 13.0 km/h 19.8 km/h 55% 0.0 mm CLR
03:54 11.4 °C 2.7 °C 1006.2 hPa SSW 13.0 km/h 18.5 km/h 55% 0.0 mm CLR
03:59 11.5 °C 2.8 °C 1006.2 hPa SW 12.2 km/h 20.4 km/h 55% 0.0 mm CLR
04:04 11.4 °C 2.9 °C 1006.2 hPa SW 12.2 km/h 9.3 km/h 56% 0.0 mm CLR
04:09 11.4 °C 2.9 °C 1006.2 hPa South 10.0 km/h 11.1 km/h 56% 0.0 mm CLR
04:14 11.3 °C 2.8 °C 1006.2 hPa SSW 10.0 km/h 16.7 km/h 56% 0.0 mm CLR
04:19 11.3 °C 2.8 °C 1006.2 hPa SSW 10.0 km/h 18.5 km/h 56% 0.0 mm CLR
04:24 11.3 °C 3.1 °C 1006.2 hPa SE 10.0 km/h 14.8 km/h 57% 0.0 mm CLR
04:29 11.2 °C 3.0 °C 1006.2 hPa SW 10.3 km/h 13.0 km/h 57% 0.0 mm CLR
04:34 11.2 °C 3.0 °C 1006.5 hPa SSW 10.3 km/h 14.8 km/h 57% 0.0 mm CLR
04:39 11.1 °C 3.2 °C 1006.5 hPa SW 10.0 km/h 13.0 km/h 58% 0.0 mm CLR
04:44 11.2 °C 3.0 °C 1006.5 hPa SSW 10.0 km/h 20.4 km/h 57% 0.0 mm CLR
04:49 11.2 °C 3.0 °C 1006.5 hPa SW 11.9 km/h 18.5 km/h 57% 0.0 mm CLR
04:54 11.3 °C 3.1 °C 1006.5 hPa SW 11.9 km/h 22.2 km/h 57% 0.0 mm CLR
04:59 11.3 °C 3.1 °C 1006.5 hPa SSW 12.2 km/h 18.5 km/h 57% 0.0 mm CLR
05:04 11.3 °C 3.1 °C 1006.7 hPa SSW 12.2 km/h 22.2 km/h 57% 0.0 mm CLR
05:09 11.4 °C 2.9 °C 1006.7 hPa SSW 11.9 km/h 20.9 km/h 56% 0.0 mm CLR
05:14 11.3 °C 3.1 °C 1006.7 hPa WSW 11.9 km/h 16.7 km/h 57% 0.0 mm CLR
05:19 11.3 °C 3.1 °C 1006.4 hPa SW 11.9 km/h 13.0 km/h 57% 0.0 mm CLR
05:24 11.4 °C 2.9 °C 1006.4 hPa SSW 11.9 km/h 16.7 km/h 56% 0.0 mm CLR
05:29 11.4 °C 2.9 °C 1006.4 hPa SSW 10.3 km/h 18.5 km/h 56% 0.0 mm CLR
05:34 11.5 °C 3.0 °C 1006.4 hPa SW 10.3 km/h 18.5 km/h 56% 0.0 mm CLR
05:39 11.7 °C 2.9 °C 1006.4 hPa SW 13.0 km/h 20.4 km/h 55% 0.0 mm CLR
05:44 11.8 °C 3.1 °C 1006.4 hPa South 13.0 km/h 18.5 km/h 55% 0.0 mm CLR
05:49 11.5 °C 3.0 °C 1006.6 hPa SW 13.0 km/h 20.4 km/h 56% 0.0 mm CLR
05:54 11.3 °C 3.1 °C 1006.6 hPa SW 13.0 km/h 18.5 km/h 57% 0.0 mm CLR
05:59 11.4 °C 3.2 °C 1006.6 hPa SW 14.0 km/h 16.7 km/h 57% 0.0 mm CLR
06:04 11.4 °C 3.2 °C 1006.8 hPa SSW 14.0 km/h 13.0 km/h 57% 0.0 mm CLR
06:09 11.3 °C 3.1 °C 1006.8 hPa WSW 9.5 km/h 13.0 km/h 57% 0.0 mm CLR
06:14 11.3 °C 3.1 °C 1006.8 hPa WSW 9.5 km/h 13.0 km/h 57% 0.0 mm CLR
06:19 11.3 °C 3.1 °C 1007.1 hPa West 8.7 km/h 13.0 km/h 57% 0.0 mm CLR
06:24 11.2 °C 3.2 °C 1007.1 hPa NW 8.7 km/h 5.6 km/h 58% 0.0 mm CLR
06:29 11.1 °C 3.2 °C 1007.1 hPa West 5.8 km/h 7.4 km/h 58% 0.0 mm CLR
06:34 11.0 °C 3.3 °C 1007.3 hPa West 5.8 km/h 11.1 km/h 59% 0.0 mm CLR
06:39 10.9 °C 3.4 °C 1007.3 hPa West 5.8 km/h 9.3 km/h 60% 0.0 mm CLR
06:44 10.9 °C 3.4 °C 1007.3 hPa WSW 5.8 km/h 7.4 km/h 60% 0.0 mm CLR
06:49 10.9 °C 3.4 °C 1007.6 hPa WSW 3.9 km/h 6.4 km/h 60% 0.0 mm CLR
06:54 10.8 °C 3.3 °C 1007.6 hPa WSW 3.9 km/h 5.0 km/h 60% 0.0 mm CLR
06:59 10.8 °C 3.6 °C 1007.6 hPa WSW 3.2 km/h 3.7 km/h 61% 0.0 mm CLR
07:04 10.7 °C 3.5 °C 1007.6 hPa WSW 3.2 km/h 7.4 km/h 61% 0.0 mm CLR
07:09 10.7 °C 3.5 °C 1007.6 hPa WSW 3.2 km/h 7.4 km/h 61% 0.0 mm CLR
07:14 10.7 °C 3.7 °C 1007.6 hPa NW 3.2 km/h 7.4 km/h 62% 0.0 mm CLR
07:19 10.6 °C 3.6 °C 1007.8 hPa NW 3.9 km/h 7.4 km/h 62% 0.0 mm CLR
07:24 10.6 °C 3.6 °C 1007.8 hPa WNW 3.9 km/h 6.4 km/h 62% 0.0 mm CLR
07:29 10.4 °C 3.7 °C 1007.8 hPa WNW 3.9 km/h 5.6 km/h 63% 0.0 mm CLR
07:34 10.3 °C 3.6 °C 1008.2 hPa WNW 3.9 km/h 5.6 km/h 63% 0.0 mm CLR
07:39 10.2 °C 3.7 °C 1008.2 hPa WNW 3.2 km/h 1.9 km/h 64% 0.0 mm CLR
07:44 10.2 °C 3.9 °C 1008.2 hPa NW 3.2 km/h 5.6 km/h 65% 0.0 mm CLR
07:49 10.2 °C 3.9 °C 1008.1 hPa NW 2.3 km/h   65% 0.0 mm CLR
07:54 10.2 °C 3.9 °C 1008.1 hPa NW 2.3 km/h 3.7 km/h 65% 0.0 mm CLR
07:59 10.2 °C 4.1 °C 1008.1 hPa NW 2.3 km/h 3.7 km/h 66% 0.0 mm CLR
08:04 10.2 °C 4.1 °C 1008.7 hPa NW 2.3 km/h 3.7 km/h 66% 0.0 mm CLR
08:09 10.2 °C 4.3 °C 1008.7 hPa WNW 2.3 km/h 6.9 km/h 67% 0.0 mm CLR
08:14 10.3 °C 4.7 °C 1008.7 hPa NW 2.3 km/h 11.1 km/h 68% 0.0 mm CLR
08:19 10.3 °C 5.1 °C 1008.9 hPa West 6.4 km/h 11.1 km/h 70% 0.0 mm CLR
08:24 10.2 °C 5.2 °C 1008.9 hPa NNW 6.4 km/h 13.7 km/h 71% 0.0 mm CLR
08:29 10.2 °C 5.2 °C 1008.9 hPa NW 8.4 km/h 19.8 km/h 71% 0.0 mm CLR
08:34 10.2 °C 5.4 °C 1009.0 hPa WNW 8.4 km/h 22.2 km/h 72% 0.0 mm CLR
08:39 10.2 °C 5.4 °C 1009.0 hPa WNW 10.3 km/h 18.5 km/h 72% 0.0 mm CLR
08:44 10.2 °C 5.6 °C 1009.0 hPa WSW 10.3 km/h 16.7 km/h 73% 0.0 mm CLR
08:49 10.2 °C 5.6 °C 1009.2 hPa WNW 10.3 km/h 18.0 km/h 73% 0.0 mm CLR
08:54 10.2 °C 5.6 °C 1009.2 hPa WNW 10.3 km/h 17.2 km/h 73% 0.0 mm CLR
08:59 10.2 °C 5.8 °C 1009.2 hPa WNW 11.9 km/h 22.2 km/h 74% 0.0 mm CLR
09:04 10.1 °C 5.7 °C 1009.4 hPa WNW 11.9 km/h 20.4 km/h 74% 0.0 mm CLR
09:09 10.1 °C 5.7 °C 1009.4 hPa NW 13.7 km/h 20.4 km/h 74% 0.0 mm CLR
09:14 10.2 °C 5.8 °C 1009.4 hPa NW 13.7 km/h 14.8 km/h 74% 0.0 mm CLR
09:19 10.3 °C 5.7 °C 1009.4 hPa NW 10.0 km/h 17.2 km/h 73% 0.0 mm CLR
09:24 10.4 °C 5.8 °C 1009.4 hPa NW 10.0 km/h 19.8 km/h 73% 0.0 mm CLR
09:29 10.6 °C 5.8 °C 1009.4 hPa NW 12.2 km/h 18.5 km/h 72% 0.0 mm CLR
09:34 10.6 °C 5.6 °C 1010.0 hPa WNW 12.2 km/h 27.8 km/h 71% 0.0 mm CLR
09:39 10.7 °C 5.4 °C 1010.0 hPa WNW 16.1 km/h 25.1 km/h 70% 0.0 mm CLR
09:44 10.7 °C 5.4 °C 1010.0 hPa West 16.1 km/h 18.5 km/h 70% 0.0 mm CLR
09:49 10.7 °C 5.4 °C 1009.7 hPa WNW 16.1 km/h 31.5 km/h 70% 0.0 mm CLR
09:54 10.8 °C 5.3 °C 1009.7 hPa WNW 16.1 km/h 33.3 km/h 69% 0.0 mm CLR
09:59 11.2 °C 5.5 °C 1009.7 hPa West 15.6 km/h 18.5 km/h 68% 0.0 mm CLR
10:04 11.4 °C 5.5 °C 1010.1 hPa West 15.6 km/h 27.8 km/h 67% 0.0 mm CLR
10:09 11.7 °C 5.6 °C 1010.1 hPa WSW 16.1 km/h 22.2 km/h 66% 0.0 mm CLR
10:14 11.8 °C 5.4 °C 1010.1 hPa WNW 16.1 km/h 22.2 km/h 65% 0.0 mm CLR
10:19 11.9 °C 5.3 °C 1010.2 hPa WNW 17.2 km/h 33.3 km/h 64% 0.0 mm CLR
10:24 11.7 °C 5.1 °C 1010.2 hPa NW 17.2 km/h 44.4 km/h 64% 0.0 mm CLR
10:29 11.9 °C 5.3 °C 1010.2 hPa WNW 26.2 km/h 37.0 km/h 64% 0.0 mm CLR
10:34 12.0 °C 5.4 °C 1010.2 hPa West 26.2 km/h 20.9 km/h 64% 0.0 mm CLR
10:39 12.1 °C 5.3 °C 1010.2 hPa WSW 18.0 km/h 27.8 km/h 63% 0.0 mm CLR
10:44 12.2 °C 5.1 °C 1010.2 hPa West 18.0 km/h 18.5 km/h 62% 0.0 mm CLR
10:49 12.4 °C 5.1 °C 1010.1 hPa SW 14.0 km/h 22.2 km/h 61% 0.0 mm CLR
10:54 12.5 °C 4.9 °C 1010.1 hPa NW 14.0 km/h 24.1 km/h 60% 0.0 mm CLR
10:59 12.9 °C 5.1 °C 1010.1 hPa WNW 14.0 km/h 25.9 km/h 59% 0.0 mm CLR
11:05 13.4 °C 5.1 °C 1010.3 hPa WNW 14.0 km/h 29.6 km/h 57% 0.0 mm CLR
11:09 13.6 °C 5.0 °C 1010.3 hPa West 17.2 km/h 27.8 km/h 56% 0.0 mm CLR
11:14 13.8 °C 5.2 °C 1010.3 hPa West 17.2 km/h 28.2 km/h 56% 0.0 mm CLR
11:19 13.9 °C 5.0 °C 1010.5 hPa West 18.0 km/h 34.6 km/h 55% 0.0 mm CLR
11:24 13.9 °C 5.0 °C 1010.5 hPa WNW 18.0 km/h 27.8 km/h 55% 0.0 mm CLR
11:29 13.9 °C 5.0 °C 1010.5 hPa WNW 18.0 km/h 22.2 km/h 55% 0.0 mm CLR
11:34 14.2 °C 5.0 °C 1010.5 hPa WSW 18.0 km/h 31.5 km/h 54% 0.0 mm CLR
11:39 14.3 °C 4.8 °C 1010.5 hPa West 18.0 km/h 35.2 km/h 53% 0.0 mm CLR
11:44 14.4 °C 4.7 °C 1010.5 hPa WNW 18.0 km/h 37.0 km/h 52% 0.0 mm CLR
11:49 14.4 °C 4.9 °C 1010.4 hPa West 25.6 km/h 27.8 km/h 53% 0.0 mm CLR
11:54 14.7 °C 4.9 °C 1010.4 hPa WNW 25.6 km/h 33.3 km/h 52% 0.0 mm CLR
11:59 14.7 °C 4.9 °C 1010.4 hPa WNW 19.0 km/h 29.6 km/h 52% 0.0 mm CLR
12:04 14.9 °C 4.8 °C 1010.4 hPa WNW 19.0 km/h 38.9 km/h 51% 0.0 mm CLR
12:09 14.8 °C 4.8 °C 1010.4 hPa WNW 20.9 km/h 29.6 km/h 51% 0.0 mm CLR
12:14 15.3 °C 5.2 °C 1010.4 hPa West 20.9 km/h 28.6 km/h 51% 0.0 mm CLR
12:19 15.4 °C 5.0 °C 1010.5 hPa West 17.2 km/h 29.6 km/h 50% 0.0 mm CLR
12:24 15.6 °C 5.2 °C 1010.5 hPa WNW 17.2 km/h 23.7 km/h 50% 0.0 mm CLR
12:29 15.5 °C 5.1 °C 1010.5 hPa NW 16.4 km/h 33.3 km/h 50% 0.0 mm CLR
12:34 15.3 °C 4.9 °C 1010.8 hPa NW 16.4 km/h 33.3 km/h 50% 0.0 mm CLR
12:39 15.2 °C 4.8 °C 1010.8 hPa West 20.1 km/h 35.2 km/h 50% 0.0 mm CLR
12:44 15.3 °C 4.9 °C 1010.8 hPa WNW 20.1 km/h 24.1 km/h 50% 0.0 mm CLR
12:49 15.4 °C 5.0 °C 1010.9 hPa NW 20.1 km/h 24.1 km/h 50% 0.0 mm CLR
12:54 15.5 °C 5.1 °C 1010.9 hPa NW 20.1 km/h 31.5 km/h 50% 0.0 mm CLR
12:59 15.5 °C 5.1 °C 1010.9 hPa WNW 17.2 km/h 22.2 km/h 50% 0.0 mm CLR
13:04 15.7 °C 5.0 °C 1010.9 hPa NNW 17.2 km/h 18.5 km/h 49% 0.0 mm CLR
13:09 15.9 °C 4.6 °C 1010.9 hPa WNW 17.2 km/h 31.5 km/h 47% 0.0 mm CLR
13:14 15.9 °C 4.6 °C 1010.9 hPa WNW 17.2 km/h 35.2 km/h 47% 0.0 mm CLR
13:19 16.1 °C 4.8 °C 1010.8 hPa WNW 19.8 km/h 24.1 km/h 47% 0.0 mm CLR
13:24 16.3 °C 4.3 °C 1010.8 hPa West 19.8 km/h 40.7 km/h 45% 0.0 mm CLR
13:29 16.6 °C 4.9 °C 1010.8 hPa North 20.1 km/h 23.3 km/h 46% 0.0 mm CLR
13:34 16.7 °C 4.7 °C 1010.9 hPa NW 20.1 km/h 25.9 km/h 45% 0.0 mm CLR
13:39 16.9 °C 4.6 °C 1010.9 hPa West 18.3 km/h 29.6 km/h 44% 0.0 mm CLR
13:44 17.0 °C 4.0 °C 1010.9 hPa WNW 18.3 km/h 31.5 km/h 42% 0.0 mm CLR
13:49 16.9 °C 4.2 °C 1010.7 hPa NW 19.0 km/h 31.5 km/h 43% 0.0 mm CLR
13:54 17.1 °C 4.1 °C 1010.7 hPa SW 19.0 km/h 29.6 km/h 42% 0.0 mm CLR
13:59 17.4 °C 4.0 °C 1010.7 hPa West 19.0 km/h 25.9 km/h 41% 0.0 mm CLR
14:05 17.6 °C 4.2 °C 1010.6 hPa WNW 19.0 km/h 38.1 km/h 41% 0.0 mm CLR
14:09 17.6 °C 4.2 °C 1010.6 hPa WNW 16.4 km/h 32.8 km/h 41% 0.0 mm CLR
14:15 17.7 °C 3.9 °C 1010.6 hPa West 16.4 km/h 33.3 km/h 40% 0.0 mm CLR
14:19 18.0 °C 3.8 °C 1010.6 hPa West 19.8 km/h 42.6 km/h 39% 0.0 mm CLR
14:24 17.9 °C 4.1 °C 1010.6 hPa West 19.8 km/h 24.1 km/h 40% 0.0 mm CLR
14:29 18.0 °C 3.8 °C 1010.6 hPa WNW 20.1 km/h 37.0 km/h 39% 0.0 mm CLR
14:34 17.8 °C 3.7 °C 1010.5 hPa NNW 20.1 km/h 27.8 km/h 39% 0.0 mm CLR
14:39 17.8 °C 3.3 °C 1010.5 hPa WNW 23.3 km/h 42.6 km/h 38% 0.0 mm CLR
14:44 17.7 °C 3.2 °C 1010.5 hPa West 23.3 km/h 35.2 km/h 38% 0.0 mm CLR
14:49 17.7 °C 3.2 °C 1010.7 hPa West 20.1 km/h 24.1 km/h 38% 0.0 mm CLR
14:55 17.7 °C 3.2 °C 1010.7 hPa WNW 20.9 km/h 37.0 km/h 38% 0.0 mm CLR
14:59 17.8 °C 3.7 °C 1010.7 hPa West 19.0 km/h 33.3 km/h 39% 0.0 mm CLR
15:05 17.9 °C 3.7 °C 1010.8 hPa WNW 19.3 km/h 35.4 km/h 39% 0.0 mm CLR
15:09 18.1 °C 3.6 °C 1010.8 hPa West 18.3 km/h 33.3 km/h 38% 0.0 mm CLR
15:14 18.3 °C 3.3 °C 1010.8 hPa SW 18.3 km/h 31.5 km/h 37% 0.0 mm CLR
15:19 18.5 °C 3.1 °C 1010.9 hPa WNW 19.0 km/h 31.5 km/h 36% 0.0 mm CLR
15:25 18.3 °C 2.9 °C 1010.9 hPa West 19.3 km/h 35.4 km/h 36% 0.0 mm CLR
15:29 18.3 °C 2.9 °C 1010.9 hPa West 20.9 km/h 29.6 km/h 36% 0.0 mm CLR
15:34 18.3 °C 2.6 °C 1010.9 hPa WNW 20.9 km/h 44.4 km/h 35% 0.0 mm CLR
15:39 18.2 °C 2.5 °C 1010.9 hPa WNW 22.0 km/h 33.3 km/h 35% 0.0 mm CLR
15:45 18.3 °C 2.2 °C 1010.9 hPa WNW 22.0 km/h 20.4 km/h 34% 0.0 mm CLR
15:49 18.4 °C 2.2 °C 1010.8 hPa NW 19.8 km/h 44.4 km/h 34% 0.0 mm CLR
15:55 18.7 °C 2.5 °C 1010.8 hPa WSW 19.8 km/h 31.5 km/h 34% 0.0 mm CLR
16:00 18.8 °C 2.2 °C 1010.8 hPa West 20.9 km/h 33.8 km/h 33% 0.0 mm CLR
16:04 18.8 °C 2.2 °C 1010.7 hPa WNW 20.9 km/h 33.3 km/h 33% 0.0 mm CLR
16:09 18.8 °C 2.2 °C 1010.7 hPa West 19.0 km/h 33.5 km/h 33% 0.0 mm CLR
16:15 19.2 °C 2.1 °C 1010.7 hPa West 19.0 km/h 29.6 km/h 32% 0.0 mm CLR
16:19 19.4 °C 2.7 °C 1010.7 hPa WSW 19.0 km/h 31.5 km/h 33% 0.0 mm CLR
16:25 19.4 °C 2.3 °C 1010.7 hPa West 19.0 km/h 24.1 km/h 32% 0.0 mm CLR
16:29 19.5 °C 1.0 °C 1010.7 hPa WNW 20.1 km/h 32.8 km/h 29% 0.0 mm CLR
16:34 19.4 °C 1.8 °C 1010.8 hPa WNW 20.1 km/h 29.6 km/h 31% 0.0 mm CLR
16:39 19.3 °C 1.3 °C 1010.8 hPa WNW 21.7 km/h 38.9 km/h 30% 0.0 mm CLR
16:45 19.2 °C 1.7 °C 1010.8 hPa WNW 21.7 km/h 24.1 km/h 31% 0.0 mm CLR
16:49 19.3 °C 1.7 °C 1010.9 hPa West 20.1 km/h 29.6 km/h 31% 0.0 mm CLR
16:54 19.3 °C 1.7 °C 1010.9 hPa West 20.1 km/h 28.2 km/h 31% 0.0 mm CLR
16:59 19.3 °C 1.3 °C 1010.9 hPa NW 18.0 km/h 35.2 km/h 30% 0.0 mm CLR
17:05 19.2 °C 1.7 °C 1011.0 hPa WNW 19.3 km/h 37.0 km/h 31% 0.0 mm CLR
17:09 19.1 °C 1.6 °C 1011.0 hPa WNW 19.0 km/h 25.9 km/h 31% 0.0 mm CLR
17:15 19.1 °C 1.6 °C 1011.0 hPa West 19.0 km/h 20.4 km/h 31% 0.0 mm CLR
17:19 19.1 °C 2.0 °C 1010.9 hPa West 13.0 km/h 28.2 km/h 32% 0.0 mm CLR
17:24 19.2 °C 2.1 °C 1010.9 hPa SW 13.0 km/h 22.2 km/h 32% 0.0 mm CLR
17:29 19.2 °C 2.1 °C 1010.9 hPa WNW 14.0 km/h 31.5 km/h 32% 0.0 mm CLR
17:35 19.2 °C 2.1 °C 1010.9 hPa WNW 14.5 km/h 30.6 km/h 32% 0.0 mm CLR
17:39 19.2 °C 2.1 °C 1010.9 hPa WNW 18.3 km/h 24.1 km/h 32% 0.0 mm CLR
17:45 19.2 °C 2.1 °C 1010.9 hPa WSW 18.3 km/h 24.1 km/h 32% 0.0 mm CLR
17:49 19.3 °C 2.2 °C 1010.7 hPa WNW 14.0 km/h 25.6 km/h 32% 0.0 mm CLR
17:55 19.3 °C 2.2 °C 1010.7 hPa NW 14.0 km/h 35.2 km/h 32% 0.0 mm CLR
17:59 19.3 °C 1.7 °C 1010.7 hPa West 19.0 km/h 31.5 km/h 31% 0.0 mm CLR
18:04 19.3 °C 2.2 °C 1010.8 hPa NW 19.0 km/h 24.1 km/h 32% 0.0 mm CLR
18:09 19.3 °C 2.2 °C 1010.8 hPa NW 17.2 km/h 27.8 km/h 32% 0.0 mm CLR
18:15 19.3 °C 2.2 °C 1010.8 hPa WNW 16.1 km/h 27.4 km/h 32% 0.0 mm CLR
18:19 19.2 °C 2.1 °C 1010.9 hPa West 15.6 km/h 33.3 km/h 32% 0.0 mm CLR
18:25 19.2 °C 2.1 °C 1010.9 hPa WNW 14.5 km/h 27.4 km/h 32% 0.0 mm CLR
18:29 19.2 °C 2.1 °C 1010.9 hPa NW 17.2 km/h 27.8 km/h 32% 0.0 mm CLR
18:34 19.1 °C 2.4 °C 1011.0 hPa NW 17.2 km/h 24.5 km/h 33% 0.0 mm CLR
18:39 19.2 °C 2.5 °C 1011.0 hPa West 16.1 km/h 25.9 km/h 33% 0.0 mm CLR
18:44 19.2 °C 2.5 °C 1011.0 hPa NNW 16.1 km/h 22.2 km/h 33% 0.0 mm CLR
18:49 19.2 °C 2.5 °C 1011.3 hPa West 16.1 km/h 25.9 km/h 33% 0.0 mm CLR
18:55 19.2 °C 2.9 °C 1011.3 hPa WNW 16.1 km/h 24.1 km/h 34% 0.0 mm CLR
18:59 19.1 °C 2.8 °C 1011.3 hPa WNW 17.2 km/h 29.6 km/h 34% 0.0 mm CLR
19:05 19.1 °C 2.8 °C 1011.3 hPa WNW 17.2 km/h 34.3 km/h 34% 0.0 mm CLR
19:09 19.1 °C 2.8 °C 1011.3 hPa WNW 16.4 km/h 35.2 km/h 34% 0.0 mm CLR
19:15 19.1 °C 2.8 °C 1011.3 hPa WNW 16.1 km/h 25.7 km/h 34% 0.0 mm CLR
19:19 19.1 °C 3.3 °C 1011.3 hPa WNW 16.1 km/h 13.0 km/h 35% 0.0 mm CLR
19:24 19.0 °C 2.8 °C 1011.3 hPa WNW 16.1 km/h 31.5 km/h 34% 0.0 mm CLR
19:29 19.0 °C 3.2 °C 1011.3 hPa NW 14.0 km/h 24.1 km/h 35% 0.0 mm CLR
19:35 18.9 °C 3.1 °C 1011.6 hPa West 14.0 km/h 20.4 km/h 35% 0.0 mm CLR
19:39 18.8 °C 3.0 °C 1011.6 hPa West 15.6 km/h 22.2 km/h 35% 0.0 mm CLR
19:45 18.8 °C 3.4 °C 1011.6 hPa West 15.6 km/h 18.5 km/h 36% 0.0 mm CLR
19:49 18.8 °C 3.4 °C 1011.9 hPa West 13.0 km/h 16.7 km/h 36% 0.0 mm CLR
19:54 18.8 °C 3.4 °C 1011.9 hPa WNW 13.0 km/h 22.2 km/h 36% 0.0 mm CLR
19:59 18.8 °C 3.4 °C 1011.9 hPa WNW 13.0 km/h 18.5 km/h 36% 0.0 mm CLR
20:05 18.7 °C 3.7 °C 1012.1 hPa WNW 13.0 km/h 22.2 km/h 37% 0.0 mm CLR
20:09 18.6 °C 4.0 °C 1012.1 hPa WSW 12.2 km/h 20.9 km/h 38% 0.0 mm CLR
20:15 18.6 °C 4.0 °C 1012.1 hPa WNW 12.9 km/h 25.7 km/h 38% 0.0 mm CLR
20:19 18.5 °C 4.3 °C 1012.2 hPa WNW 13.7 km/h 17.2 km/h 39% 0.0 mm CLR
20:25 18.4 °C 4.2 °C 1012.2 hPa WNW 13.7 km/h 14.8 km/h 39% 0.0 mm CLR
20:29 18.4 °C 4.2 °C 1012.2 hPa North 11.1 km/h 16.7 km/h 39% 0.0 mm CLR
20:35 18.3 °C 4.4 °C 1012.3 hPa NW 11.3 km/h 20.9 km/h 40% 0.0 mm CLR
20:39 18.2 °C 4.4 °C 1012.3 hPa WNW 10.3 km/h 18.5 km/h 40% 0.0 mm CLR
20:45 18.1 °C 4.3 °C 1012.3 hPa WNW 10.3 km/h 13.0 km/h 40% 0.0 mm CLR
20:49 18.1 °C 4.3 °C 1012.5 hPa WNW 10.0 km/h 11.1 km/h 40% 0.0 mm CLR
20:55 18.0 °C 4.6 °C 1012.5 hPa West 10.0 km/h 11.1 km/h 41% 0.0 mm CLR
20:59 18.0 °C 4.6 °C 1012.5 hPa WNW 9.5 km/h 16.7 km/h 41% 0.0 mm CLR
21:05 17.9 °C 4.4 °C 1012.6 hPa WNW 9.5 km/h 11.1 km/h 41% 0.0 mm CLR
21:09 17.9 °C 4.4 °C 1012.6 hPa NW 8.4 km/h 13.0 km/h 41% 0.0 mm CLR
21:14 17.8 °C 4.3 °C 1012.6 hPa WNW 8.4 km/h 9.3 km/h 41% 0.0 mm CLR
21:19 17.8 °C 4.7 °C 1012.7 hPa West 6.4 km/h 7.4 km/h 42% 0.0 mm CLR
21:25 17.7 °C 4.6 °C 1012.7 hPa West 8.0 km/h 8.0 km/h 42% 0.0 mm CLR
21:29 17.7 °C 4.6 °C 1012.7 hPa WSW 3.9 km/h 7.4 km/h 42% 0.0 mm CLR
21:34 17.7 °C 4.6 °C 1013.0 hPa West 3.9 km/h 9.3 km/h 42% 0.0 mm CLR
21:39 17.7 °C 4.6 °C 1013.0 hPa West 4.7 km/h 7.4 km/h 42% 0.0 mm CLR
21:45 17.6 °C 4.5 °C 1013.0 hPa WNW 4.7 km/h 9.3 km/h 42% 0.0 mm CLR
21:49 17.5 °C 4.8 °C 1013.4 hPa WNW 5.8 km/h 7.4 km/h 43% 0.0 mm CLR
21:55 17.4 °C 4.7 °C 1013.4 hPa West 4.8 km/h 9.7 km/h 43% 0.0 mm CLR
21:59 17.4 °C 4.7 °C 1013.4 hPa West 5.0 km/h 9.3 km/h 43% 0.0 mm CLR
22:05 17.3 °C 4.9 °C 1013.5 hPa West 4.8 km/h 11.3 km/h 44% 0.0 mm CLR
22:09 17.2 °C 4.8 °C 1013.5 hPa WNW 5.8 km/h 9.5 km/h 44% 0.0 mm CLR
22:15 17.2 °C 5.2 °C 1013.5 hPa NW 5.8 km/h 9.5 km/h 45% 0.0 mm CLR
22:19 17.2 °C 5.2 °C 1013.7 hPa WNW 6.4 km/h 11.1 km/h 45% 0.0 mm CLR
22:25 17.1 °C 5.1 °C 1013.7 hPa WNW 8.0 km/h 12.9 km/h 45% 0.0 mm CLR
22:29 17.1 °C 5.1 °C 1013.7 hPa WNW 8.4 km/h 7.4 km/h 45% 0.0 mm CLR
22:34 17.1 °C 5.1 °C 1013.7 hPa West 8.4 km/h 9.3 km/h 45% 0.0 mm CLR
22:39 17.1 °C 5.4 °C 1013.7 hPa West 5.0 km/h 5.8 km/h 46% 0.0 mm CLR
22:44 17.0 °C 5.3 °C 1013.7 hPa West 5.0 km/h 8.4 km/h 46% 0.0 mm CLR
22:49 16.9 °C 5.2 °C 1013.8 hPa West 5.0 km/h 8.4 km/h 46% 0.0 mm CLR
22:55 16.9 °C 5.2 °C 1013.8 hPa WSW 5.0 km/h 9.3 km/h 46% 0.0 mm CLR
22:59 16.9 °C 5.2 °C 1013.8 hPa West 5.8 km/h 13.0 km/h 46% 0.0 mm CLR
23:05 16.9 °C 5.2 °C 1013.8 hPa WSW 4.8 km/h 11.3 km/h 46% 0.0 mm CLR
23:09 16.9 °C 5.5 °C 1013.8 hPa SSW 6.4 km/h 9.3 km/h 47% 0.0 mm CLR
23:14 16.9 °C 5.5 °C 1013.8 hPa WSW 6.4 km/h 9.3 km/h 47% 0.0 mm CLR
23:19 16.9 °C 5.5 °C 1013.7 hPa WSW 6.4 km/h 11.1 km/h 47% 0.0 mm CLR
23:24 16.9 °C 5.2 °C 1013.7 hPa WSW 6.4 km/h 11.1 km/h 46% 0.0 mm CLR
23:29 17.0 °C 5.3 °C 1013.7 hPa SW 6.9 km/h 8.7 km/h 46% 0.0 mm CLR
23:35 17.0 °C 5.3 °C 1013.8 hPa SSW 8.0 km/h 11.3 km/h 46% 0.0 mm CLR
23:39 16.9 °C 5.5 °C 1013.8 hPa South 5.8 km/h 1.9 km/h 47% 0.0 mm CLR
23:45 16.9 °C 5.5 °C 1013.8 hPa SE 5.8 km/h 7.6 km/h 47% 0.0 mm CLR
23:49 16.7 °C 5.9 °C 1013.9 hPa SE 3.9 km/h 9.3 km/h 49% 0.0 mm CLR
23:55 16.4 °C 5.7 °C 1013.9 hPa SE 3.2 km/h 8.0 km/h 49% 0.0 mm CLR
Murcia-Puente Tocinos, España
Compliments of Weather Underground - 2.5 mb

La estación de MeteoMurcia.com, publica sus datos en los siguientes proyectos:

Weather Underground PWS IMURCIAP2 Meteoclimatic www.awekas.at

W3Counter
Web Analytics